Flag for Bosnia-Herzegovina Weather past 2 weeks in Mostar, Bosnia-Herzegovina

Now
88 °F

Sunny.


Feels Like: 88 °F
Forecast: 60 / 93 °F
Wind: 9 mph from Southeast

Location: Mostar

Current Time: Sep 2, 2015 at 8:00:21 PM

Latest Report: Sep 2, 2015 at 7:00 PM


Visibility: 10 mi

Pressure: 29.80 "Hg

Humidity: 40%

Dew point: 61 °F

Location of MostarLocation

Historic Weather in Mostar — Graph

°F

Mostar temperature yesterday

Maximum temperature yesterday: 97 °F (at 2:00 PM)
Minimum temperature yesterday: 63 °F (at 6:00 AM)
Average temperature yesterday: 84 °F

Past Weeks' High & Low Weather Summary

 TemperatureHumidityPressure
High99 °F (Aug 29, 3:00 PM)100% (Aug 20, 7:00 AM)30.12 "Hg (Aug 20, 7:00 AM)
Low59 °F (Aug 24, 6:00 AM)19% (Sep 1, 2:30 PM)29.77 "Hg (Sep 2, 4:00 PM)
Average77 °F61%29.97 "Hg
* Reported Aug 18 6:00 PM — Sep 2 6:00 PM, Mostar, Weather by CustomWeather, © 2015

Note: Actual official high and low records may vary slightly from our data, if they occured in-between our weather recording intervals... More about our weather records

Advertising

Mostar weather history for previous 24 hours

 ConditionsComfort  
Time TempWeatherWind HumidityBarometerVisibility
6:00 PM
Wed, Sep 2
91 °FPassing clouds.7 mph30%29.80 "HgN/A
5:00 PM95 °FPassing clouds.9 mph25%29.77 "HgN/A
4:00 PM95 °FPassing clouds.10 mph25%29.77 "HgN/A
3:00 PM97 °FPassing clouds.6 mph22%29.80 "HgN/A
2:00 PM95 °FPassing clouds.3 mph26%29.80 "HgN/A
1:00 PM91 °FPassing clouds.2 mph32%29.83 "HgN/A
12:00 PM88 °FPassing clouds.3 mph33%29.86 "HgN/A
11:00 AM82 °FPassing clouds.3 mph42%29.86 "HgN/A
10:00 AM79 °FSunny.2 mph45%29.86 "Hg10 mi
9:00 AM75 °FSunny.2 mph50%29.86 "Hg10 mi
8:00 AM68 °FSunny.1 mph69%29.89 "Hg10 mi
7:00 AM61 °FClear.1 mph83%29.89 "Hg10 mi
6:00 AM63 °FClear.1 mph83%29.86 "Hg10 mi
5:00 AM63 °FClear.3 mph83%29.86 "Hg10 mi
4:00 AM64 °FClear.1 mph78%29.86 "Hg10 mi
3:00 AM66 °FClear.1 mph78%29.86 "Hg10 mi
2:00 AM68 °FPassing clouds.3 mph69%29.86 "HgN/A
1:00 AM68 °FClear.5 mph73%29.86 "Hg10 mi
11:00 PM
Tue, Sep 1
73 °FClear.2 mph65%29.86 "Hg10 mi
10:00 PM75 °FClear.3 mph61%29.86 "Hg10 mi
9:00 PM81 °FPassing clouds.5 mph51%29.86 "HgN/A
8:00 PM84 °FPassing clouds.3 mph43%29.83 "HgN/A
Weather by CustomWeather, © 2015

See weather overviewHow to use our weather pages